Time,TemperatureF,DewpointF,PressureIn,WindDirection,WindDirectionDegrees,WindSpeedMPH,WindSpeedGustMPH,Humidity,HourlyPrecipIn,Conditions,Clouds,dailyrainin,SoftwareType,DateUTC
2013-03-26 00:03:00,63.3,43.0,30.02,WSW,241,5.0,11.0,47,0.00,,,0.00,weatherlink.com 1.10,2013-03-26 04:03:00,
2013-03-26 00:18:00,63.0,42.0,30.03,WNW,286,6.0,10.0,47,0.00,,,0.00,weatherlink.com 1.10,2013-03-26 04:18:00,
2013-03-26 00:33:00,62.5,42.0,30.03,WSW,257,3.0,10.0,47,0.00,,,0.00,weatherlink.com 1.10,2013-03-26 04:33:00,
2013-03-26 00:48:00,62.3,42.0,30.03,WNW,291,5.0,11.0,47,0.00,,,0.00,weatherlink.com 1.10,2013-03-26 04:48:00,
2013-03-26 01:03:00,61.9,42.0,30.04,WSW,250,5.0,9.0,49,0.00,,,0.00,weatherlink.com 1.10,2013-03-26 05:03:00,
2013-03-26 01:18:00,61.7,42.0,30.04,NNW,328,5.0,12.0,48,0.00,,,0.00,weatherlink.com 1.10,2013-03-26 05:18:00,
2013-03-26 01:33:00,61.1,42.0,30.04,WSW,253,4.0,13.0,49,0.00,,,0.00,weatherlink.com 1.10,2013-03-26 05:33:00,
2013-03-26 01:48:00,60.4,41.0,30.04,NW,324,13.0,15.0,49,0.00,,,0.00,weatherlink.com 1.10,2013-03-26 05:48:00,
2013-03-26 02:03:00,58.9,38.0,30.05,West,262,9.0,21.0,47,0.00,,,0.00,weatherlink.com 1.10,2013-03-26 06:03:00,
2013-03-26 02:18:00,58.3,40.0,30.04,NW,312,5.0,12.0,51,0.00,,,0.00,weatherlink.com 1.10,2013-03-26 06:18:00,
2013-03-26 02:33:00,57.7,41.0,30.05,West,266,6.0,19.0,54,0.00,,,0.00,weatherlink.com 1.10,2013-03-26 06:33:00,
2013-03-26 02:48:00,57.3,41.0,30.05,WNW,288,4.0,16.0,55,0.00,,,0.00,weatherlink.com 1.10,2013-03-26 06:48:00,
2013-03-26 03:04:00,57.1,41.0,30.05,WSW,250,4.0,14.0,55,0.00,,,0.00,weatherlink.com 1.10,2013-03-26 07:04:00,
2013-03-26 03:19:00,57.0,41.0,30.04,WNW,286,4.0,15.0,55,0.00,,,0.00,weatherlink.com 1.10,2013-03-26 07:19:00,
2013-03-26 03:34:00,56.8,41.0,30.04,WNW,287,5.0,13.0,55,0.00,,,0.00,weatherlink.com 1.10,2013-03-26 07:34:00,
2013-03-26 03:49:00,56.6,41.0,30.03,WSW,254,3.0,13.0,57,0.00,,,0.00,weatherlink.com 1.10,2013-03-26 07:49:00,
2013-03-26 04:04:00,56.4,42.0,30.04,NW,319,7.0,14.0,58,0.00,,,0.00,weatherlink.com 1.10,2013-03-26 08:04:00,
2013-03-26 04:19:00,56.5,42.0,30.05,SW,232,10.0,13.0,59,0.00,,,0.00,weatherlink.com 1.10,2013-03-26 08:19:00,
2013-03-26 04:34:00,56.4,44.0,30.04,WNW,288,7.0,14.0,63,0.00,,,0.00,weatherlink.com 1.10,2013-03-26 08:34:00,
2013-03-26 04:49:00,56.0,43.0,30.04,WNW,284,7.0,15.0,63,0.00,,,0.00,weatherlink.com 1.10,2013-03-26 08:49:00,
2013-03-26 05:04:00,55.9,43.0,30.04,NNW,332,3.0,16.0,62,0.00,,,0.00,weatherlink.com 1.10,2013-03-26 09:04:00,
2013-03-26 05:19:00,55.9,43.0,30.05,West,266,10.0,15.0,63,0.00,,,0.00,weatherlink.com 1.10,2013-03-26 09:19:00,
2013-03-26 05:34:00,55.8,44.0,30.05,West,279,6.0,10.0,65,0.00,,,0.00,weatherlink.com 1.10,2013-03-26 09:34:00,
2013-03-26 05:49:00,55.7,44.0,30.06,WNW,294,6.0,9.0,64,0.00,,,0.00,weatherlink.com 1.10,2013-03-26 09:49:00,
2013-03-26 06:04:00,55.7,43.0,30.07,WNW,295,3.0,16.0,63,0.00,,,0.00,weatherlink.com 1.10,2013-03-26 10:04:00,
2013-03-26 06:19:00,55.5,43.0,30.08,West,267,8.0,10.0,63,0.00,,,0.00,weatherlink.com 1.10,2013-03-26 10:19:00,
2013-03-26 06:34:00,55.3,42.0,30.08,NW,319,7.0,11.0,61,0.00,,,0.00,weatherlink.com 1.10,2013-03-26 10:34:00,
2013-03-26 06:49:00,55.1,42.0,30.09,West,279,2.0,15.0,62,0.00,,,0.00,weatherlink.com 1.10,2013-03-26 10:49:00,
2013-03-26 07:04:00,54.8,41.0,30.09,West,274,3.0,15.0,60,0.00,,,0.00,weatherlink.com 1.10,2013-03-26 11:04:00,
2013-03-26 07:19:00,54.6,41.0,30.10,NW,313,8.0,10.0,60,0.00,,,0.00,weatherlink.com 1.10,2013-03-26 11:19:00,
2013-03-26 07:34:00,54.4,41.0,30.10,WNW,294,6.0,12.0,62,0.00,,,0.00,weatherlink.com 1.10,2013-03-26 11:34:00,
2013-03-26 07:49:00,54.0,42.0,30.11,West,280,2.0,11.0,63,0.00,,,0.00,weatherlink.com 1.10,2013-03-26 11:49:00,
2013-03-26 08:04:00,54.1,42.0,30.11,NW,320,7.0,14.0,63,0.00,,,0.00,weatherlink.com 1.10,2013-03-26 12:04:00,
2013-03-26 08:19:00,54.6,41.0,30.11,WNW,300,9.0,12.0,61,0.00,,,0.00,weatherlink.com 1.10,2013-03-26 12:19:00,
2013-03-26 08:34:00,55.1,40.0,30.12,West,268,7.0,14.0,57,0.00,,,0.00,weatherlink.com 1.10,2013-03-26 12:34:00,
2013-03-26 08:49:00,55.8,40.0,30.12,NW,324,2.0,16.0,56,0.00,,,0.00,weatherlink.com 1.10,2013-03-26 12:49:00,
2013-03-26 09:04:00,56.5,38.0,30.13,WNW,300,4.0,16.0,51,0.00,,,0.00,weatherlink.com 1.10,2013-03-26 13:04:00,
2013-03-26 09:19:00,56.9,36.0,30.14,NW,318,7.0,20.0,46,0.00,,,0.00,weatherlink.com 1.10,2013-03-26 13:19:00,
2013-03-26 09:34:00,57.4,37.0,30.15,NW,321,6.0,14.0,47,0.00,,,0.00,weatherlink.com 1.10,2013-03-26 13:34:00,
2013-03-26 09:49:00,57.5,37.0,30.15,WNW,290,10.0,16.0,47,0.00,,,0.00,weatherlink.com 1.10,2013-03-26 13:49:00,
2013-03-26 10:05:00,57.7,38.0,30.15,WNW,300,7.0,16.0,48,0.00,,,0.00,weatherlink.com 1.10,2013-03-26 14:05:00,
2013-03-26 10:20:00,58.0,38.0,30.16,WSW,255,7.0,15.0,48,0.00,,,0.00,weatherlink.com 1.10,2013-03-26 14:20:00,
2013-03-26 10:35:00,58.3,40.0,30.16,West,269,5.0,13.0,50,0.00,,,0.00,weatherlink.com 1.10,2013-03-26 14:35:00,
2013-03-26 10:50:00,58.4,40.0,30.16,NNW,346,8.0,13.0,50,0.00,,,0.00,weatherlink.com 1.10,2013-03-26 14:50:00,
2013-03-26 11:05:00,59.8,39.0,30.15,SSW,213,4.0,12.0,46,0.00,,,0.00,weatherlink.com 1.10,2013-03-26 15:05:00,
2013-03-26 11:20:00,60.3,38.0,30.15,West,275,5.0,14.0,44,0.00,,,0.00,weatherlink.com 1.10,2013-03-26 15:20:00,
2013-03-26 11:35:00,60.6,38.0,30.15,West,261,5.0,12.0,44,0.00,,,0.00,weatherlink.com 1.10,2013-03-26 15:35:00,
2013-03-26 11:50:00,60.8,36.0,30.15,WSW,238,4.0,13.0,40,0.00,,,0.00,weatherlink.com 1.10,2013-03-26 15:50:00,
2013-03-26 12:05:00,61.3,36.0,30.14,West,269,3.0,12.0,39,0.00,,,0.00,weatherlink.com 1.10,2013-03-26 16:05:00,
2013-03-26 12:20:00,61.6,35.0,30.15,SW,234,8.0,13.0,37,0.00,,,0.00,weatherlink.com 1.10,2013-03-26 16:20:00,
2013-03-26 12:35:00,62.1,34.0,30.15,WNW,284,0.0,13.0,35,0.00,,,0.00,weatherlink.com 1.10,2013-03-26 16:35:00,
2013-03-26 12:50:00,62.2,35.0,30.15,WNW,301,3.0,12.0,37,0.00,,,0.00,weatherlink.com 1.10,2013-03-26 16:50:00,
2013-03-26 13:05:00,62.8,32.0,30.14,NNW,329,6.0,14.0,31,0.00,,,0.00,weatherlink.com 1.10,2013-03-26 17:05:00,
2013-03-26 13:20:00,63.4,33.0,30.14,NW,306,3.0,13.0,32,0.00,,,0.00,weatherlink.com 1.10,2013-03-26 17:20:00,
2013-03-26 13:35:00,62.9,32.0,30.14,WNW,300,0.0,13.0,31,0.00,,,0.00,weatherlink.com 1.10,2013-03-26 17:35:00,
2013-03-26 13:50:00,63.6,33.0,30.13,WSW,244,6.0,13.0,32,0.00,,,0.00,weatherlink.com 1.10,2013-03-26 17:50:00,
2013-03-26 14:05:00,63.8,33.0,30.13,WNW,282,8.0,16.0,32,0.00,,,0.00,weatherlink.com 1.10,2013-03-26 18:05:00,
2013-03-26 14:20:00,64.5,36.0,30.12,NW,322,8.0,15.0,35,0.00,,,0.00,weatherlink.com 1.10,2013-03-26 18:20:00,
2013-03-26 14:35:00,64.8,36.0,30.12,WSW,240,6.0,12.0,35,0.00,,,0.00,weatherlink.com 1.10,2013-03-26 18:35:00,
2013-03-26 14:50:00,64.8,38.0,30.12,SW,215,5.0,12.0,37,0.00,,,0.00,weatherlink.com 1.10,2013-03-26 18:50:00,
2013-03-26 15:05:00,64.0,36.0,30.12,WSW,248,12.0,16.0,36,0.00,,,0.00,weatherlink.com 1.10,2013-03-26 19:05:00,
2013-03-26 15:20:00,63.3,36.0,30.12,West,273,7.0,22.0,36,0.00,,,0.00,weatherlink.com 1.10,2013-03-26 19:20:00,
2013-03-26 15:35:00,64.1,36.0,30.11,WNW,303,7.0,14.0,36,0.00,,,0.00,weatherlink.com 1.10,2013-03-26 19:35:00,
2013-03-26 15:50:00,64.3,36.0,30.11,WSW,238,6.0,15.0,35,0.00,,,0.00,weatherlink.com 1.10,2013-03-26 19:50:00,
2013-03-26 16:05:00,64.2,37.0,30.11,West,259,3.0,16.0,37,0.00,,,0.00,weatherlink.com 1.10,2013-03-26 20:05:00,
2013-03-26 16:20:00,64.3,36.0,30.12,NW,312,7.0,19.0,35,0.00,,,0.00,weatherlink.com 1.10,2013-03-26 20:20:00,
2013-03-26 16:35:00,64.0,36.0,30.11,WSW,246,16.0,16.0,35,0.00,,,0.00,weatherlink.com 1.10,2013-03-26 20:35:00,
2013-03-26 16:50:00,63.9,37.0,30.11,WSW,244,8.0,18.0,37,0.00,,,0.00,weatherlink.com 1.10,2013-03-26 20:50:00,
2013-03-26 17:05:00,63.7,37.0,30.11,WSW,250,11.0,15.0,38,0.00,,,0.00,weatherlink.com 1.10,2013-03-26 21:05:00,
2013-03-26 17:20:00,64.4,39.0,30.11,NW,319,7.0,15.0,40,0.00,,,0.00,weatherlink.com 1.10,2013-03-26 21:20:00,
2013-03-26 17:35:00,63.6,39.0,30.11,WSW,248,7.0,16.0,41,0.00,,,0.00,weatherlink.com 1.10,2013-03-26 21:35:00,
2013-03-26 17:50:00,64.1,40.0,30.12,WSW,242,3.0,15.0,42,0.00,,,0.00,weatherlink.com 1.10,2013-03-26 21:50:00,
2013-03-26 18:05:00,64.2,40.0,30.12,WNW,288,6.0,14.0,42,0.00,,,0.00,weatherlink.com 1.10,2013-03-26 22:05:00,
2013-03-26 18:20:00,63.8,40.0,30.13,WNW,291,8.0,15.0,42,0.00,,,0.00,weatherlink.com 1.10,2013-03-26 22:20:00,
2013-03-26 18:35:00,63.7,41.0,30.12,SW,220,8.0,13.0,43,0.00,,,0.00,weatherlink.com 1.10,2013-03-26 22:35:00,
2013-03-26 18:50:00,63.3,39.0,30.13,West,260,5.0,13.0,41,0.00,,,0.00,weatherlink.com 1.10,2013-03-26 22:50:00,
2013-03-26 19:05:00,62.4,39.0,30.13,SW,225,7.0,13.0,43,0.00,,,0.00,weatherlink.com 1.10,2013-03-26 23:05:00,
2013-03-26 19:20:00,61.8,40.0,30.14,SSW,213,7.0,9.0,45,0.00,,,0.00,weatherlink.com 1.10,2013-03-26 23:20:00,
2013-03-26 19:35:00,61.3,40.0,30.15,SW,231,8.0,14.0,45,0.00,,,0.00,weatherlink.com 1.10,2013-03-26 23:35:00,
2013-03-26 19:50:00,60.7,38.0,30.16,WSW,252,7.0,12.0,43,0.00,,,0.00,weatherlink.com 1.10,2013-03-26 23:50:00,
2013-03-26 20:05:00,60.0,39.0,30.17,WNW,298,9.0,13.0,46,0.00,,,0.00,weatherlink.com 1.10,2013-03-27 00:05:00,
2013-03-26 20:20:00,59.4,36.0,30.18,WNW,293,8.0,14.0,42,0.00,,,0.00,weatherlink.com 1.10,2013-03-27 00:20:00,
2013-03-26 20:36:00,58.7,37.0,30.18,WNW,282,3.0,11.0,44,0.00,,,0.00,weatherlink.com 1.10,2013-03-27 00:36:00,
2013-03-26 20:50:00,58.3,36.0,30.19,WNW,282,1.0,11.0,43,0.00,,,0.00,weatherlink.com 1.10,2013-03-27 00:50:00,
2013-03-26 21:05:00,57.7,35.0,30.19,West,274,4.0,9.0,43,0.00,,,0.00,weatherlink.com 1.10,2013-03-27 01:05:00,
2013-03-26 21:20:00,57.1,35.0,30.20,WNW,285,6.0,8.0,44,0.00,,,0.00,weatherlink.com 1.10,2013-03-27 01:20:00,
2013-03-26 21:35:00,56.5,35.0,30.21,West,270,3.0,7.0,44,0.00,,,0.00,weatherlink.com 1.10,2013-03-27 01:35:00,
2013-03-26 21:50:00,56.0,34.0,30.21,WSW,252,1.0,10.0,44,0.00,,,0.00,weatherlink.com 1.10,2013-03-27 01:50:00,
2013-03-26 22:05:00,55.4,34.0,30.22,WNW,296,7.0,11.0,45,0.00,,,0.00,weatherlink.com 1.10,2013-03-27 02:05:00,
2013-03-26 22:20:00,54.8,34.0,30.22,West,277,5.0,9.0,45,0.00,,,0.00,weatherlink.com 1.10,2013-03-27 02:20:00,
2013-03-26 22:36:00,54.5,33.0,30.23,WNW,291,5.0,12.0,44,0.00,,,0.00,weatherlink.com 1.10,2013-03-27 02:36:00,
2013-03-26 22:51:00,54.0,34.0,30.23,West,276,5.0,8.0,47,0.00,,,0.00,weatherlink.com 1.10,2013-03-27 02:51:00,
2013-03-26 23:06:00,53.4,34.0,30.24,WNW,286,3.0,8.0,49,0.00,,,0.00,weatherlink.com 1.10,2013-03-27 03:06:00,
2013-03-26 23:21:00,53.0,35.0,30.25,WNW,299,2.0,7.0,51,0.00,,,0.00,weatherlink.com 1.10,2013-03-27 03:21:00,
2013-03-26 23:36:00,52.6,33.0,30.25,NW,317,2.0,9.0,47,0.00,,,0.00,weatherlink.com 1.10,2013-03-27 03:36:00,
2013-03-26 23:51:00,52.3,33.0,30.25,WNW,283,3.0,9.0,48,0.00,,,0.00,weatherlink.com 1.10,2013-03-27 03:51:00,